Regional Weather Roundup
Issued by NWS

Home | Current Version | Previous Version | Graphics & Text | Print | Product List | Glossary On
Versions: 1 2 3 4 5 6 7 8 9 10 11 12 13 14 15 16 17 18 19 20 21 22 23 24 25 26 27 28 29 30 31 32 33 34 35 36 37 38 39 40 41 42 43 44 45 46 47 48 49 50
000
ASUS45 KBOU 040207
RWRCO

WEATHER ROUNDUP FOR COLORADO
NATIONAL WEATHER SERVICE DENVER/BOULDER CO
800 PM MDT MON AUG 03 2015

NOTE: "FAIR" INDICATES FEW OR NO CLOUDS BELOW 12000 FEET WITH NO
SIGNIFICANT WEATHER AND/OR OBSTRUCTIONS TO VISIBILITY.

COZ001>005-013-030-031-040300-
...NORTHWEST COLORADO...

CITY           SKY/WX    TMP DP  RH WIND       PRES   REMARKS
CRAIG          CLOUDY    65  56  72 E8        30.14R
HAYDEN         MOCLDY    59  52  77 E13       30.17R
MEEKER         MOCLDY    68  54  60 SE5       30.14R
MOUNT WERNER   NOT AVBL
STEAMBOAT SPGS   N/A     57  53  86 E8        30.20S
WALDEN         CLOUDY    54  48  82 CALM      30.29R
$$

COZ006>008-011-040300-
...WEST CENTRAL VALLEYS...

CITY           SKY/WX    TMP DP  RH WIND       PRES   REMARKS
GRAND JUNCTION MOCLDY    80  46  30 SW7       30.02R
MONTROSE       CLOUDY    76  51  41 SE5       30.14R
EAGLE          MOCLDY    70  52  52 W10       30.18R
RIFLE          MOCLDY    72  54  53 E10       30.08R
DELTA          NOT AVBL
NUCLA          NOT AVBL
$$

COZ017>023-064>068-040300-
...SOUTHWEST COLORADO...

CITY           SKY/WX    TMP DP  RH WIND       PRES   REMARKS
DURANGO        PTCLDY    71  42  35 N9        30.20R
CORTEZ         MOCLDY    75  44  33 NE14      30.15R
PAGOSA SPRINGS PTCLDY    65  48  55 CALM      30.28R
TELLURIDE      NOT AVBL
WOLF CREEK PAS NOT AVBL
$$

COZ009-010-012-014-032>034-037-058>063-040300-
...CENTRAL COLORADO...

CITY           SKY/WX    TMP DP  RH WIND       PRES   REMARKS
ASPEN          CLOUDY    61  50  67 SE8       30.27S
BUENA VISTA    MOCLDY    65  39  39 NW7       30.26S
COPPER MTN     MOCLDY    52  37  58 S10G20    30.56S
BERTHOUD PASS  MOCLDY    43  34  70 W8G26     30.60S THUNDER
COTTONWOOD PAS MOCLDY    61  36  39 SW18G26   30.39F
GUNNISON       MOCLDY    68  43  40 NW7       30.30R
KREMMLING      MOCLDY    70  43  37 W9        30.22R THUNDER
LEADVILLE      CLOUDY    54  41  61 N3        30.41R
MONARCH PASS   PTCLDY    46  41  81 W24G30    30.66S
SALIDA         NOT AVBL
SUNLIGHT       MOCLDY    50  46  87 CALM      30.48S
WILKERSON PASS NOT AVBL
$$

COZ069>075-040300-
...SAN LUIS VALLEY/SANGRE DE CRISTO MOUNTAINS...

CITY           SKY/WX    TMP DP  RH WIND       PRES   REMARKS
ALAMOSA        MOCLDY    65  50  58 W7        30.23S
LA VETA PASS   MOCLDY    54  46  76 MISG      30.43S
SAGUACHE       PTCLDY    64  52  63 CALM      30.27R
$$

COZ035-036-038>040-040300-
...NORTHERN COLORADO FRONT RANGE...

CITY           SKY/WX    TMP DP  RH WIND       PRES   REMARKS
DENVER INTL AP MOCLDY    71  51  49 S14       30.09R
DMNS CITY PARK   N/A     71  55  57 E9G18     30.08R
AURORA         MOCLDY    69  54  59 SE13      30.11R
FRONT RANGE AP MOCLDY    70  50  49 SE16      30.11R
ERIE MUNI ARPT PTCLDY    75  48  37 S8        30.05R
BOULDER MUN AP PTCLDY    73  48  40 S9        30.06R
CENTENNIAL     MOCLDY    69  53  56 SE12      30.11R
BROOMFIELD     MOCLDY    73  48  40 S7        30.10R
FORT COLLINS   CLOUDY    77  46  33 S8        30.04R
LONGMONT       PTCLDY    78  51  38 CALM      30.06R
$$

COZ041-046-047-076>085-087-088-040300-
...PIKES PEAK/PALMER DIVIDE AND SOUTHERN FOOTHILLS...

CITY           SKY/WX    TMP DP  RH WIND       PRES   REMARKS
COLO. SPRINGS  MOCLDY    67  54  63 N3        30.18R THUNDER
A. F. ACADEMY  PTCLDY    64  55  71 SW5       30.19R
ELLICOTT       CLEAR    N/A N/A N/A E7        30.14S
FALCON         CLEAR     61  51  70 E7        30.22S
FORT CARSON    CLOUDY    67  56  65 N2        30.14R
LIMON          MOCLDY    62  53  72 SE7       30.11F
MONUMENT HILL  MOCLDY    59  52  77 S6        30.23R
TRINIDAD       PTCLDY    64  58  80 SE6G21    30.11R THUNDER
$$

COZ042>045-048>051-090-091-040300-
...NORTHEAST COLORADO...

CITY           SKY/WX    TMP DP  RH WIND       PRES   REMARKS
GREELEY ARPT   PTCLDY    73  52  46 S8        30.04R
AKRON          MOCLDY    70  51  51 S16G26    30.06R
BURLINGTON     CLOUDY    70  54  56 E8        30.02F
WRAY           CLOUDY    76  52  43 SW10      29.99S
STERLING       MOCLDY    77  52  41 SW9       30.01R
HOLYOKE        CLOUDY    79  59  50 S9        29.99R
FORT MORGAN    MOCLDY    73  47  38 S12G20    30.05S
$$

COZ086-089-092>099-040300-
...SOUTHEAST COLORADO...

CITY           SKY/WX    TMP DP  RH WIND       PRES   REMARKS
PUEBLO         PTCLDY    77  56  48 E9        30.04R
LA JUNTA       CLOUDY    74  57  55 NE18G28   30.01R
LAMAR          MOCLDY    70  63  78 NE5       29.98S
SPRINGFIELD      N/A     72  65  78 S9        30.00F
$$



USA.gov is the U.S. government's official web portal to all federal, state and local government web resources and services.